Location: Newark
(12.4436°N, 0.6167°W)
Time: 01:55:20
(UTC+00:00)

Vanguard 2 - Pass Details

Date: 08 December 2019
Orbit: 553 x 2938 km, 32.9° (Epoch: 19 January)

Event Time Altitude Azimuth Distance (km) Brightness Sun altitude
Rises 00:46:31 0° 247° (WSW) 5,315 - -73.9°
Reaches altitude 10° 00:49:35 10° 250° (WSW) 4,586 - -73.3°
Maximum altitude 01:03:30 68° 331° (NNW) 2,868 - -70.6°
Exits shadow 01:18:06 19° 50° (NE) 5,017 11.6 -67.6°
Drops below altitude 10° 01:21:33 10° 53° (NE) 5,729 12.0 -66.8°
Sets 01:25:56 0° 56° (NE) 6,649 12.5 -65.9°
